Hourly Data Report for May 25, 2019

MIRAMICHI RCS
NEW BRUNSWICK
Current Station Operator: ECCC - MSC

47°00'34.000" N
65°27'54.000" W
33.00 m
8100989
71744
ACQ

Download Data

Hourly Data (May 2019)
Hourly Data Report for May 25, 2019
TIME
LST
Temp Definition
°C
Dew Point Definition
°C
Rel Hum Definition
%
Precip. Amount Definition
mm

Wind Dir Definition
10's deg

Wind Spd Definition
km/h
Visibility Definition
km
Stn Press Definition
kPa
Hmdx Definition


Wind Chill Definition


Weather Definition


00:00 4.6 1.7 81 0.0 25 4   101.20     LegendNANA
01:00 3.7 1.1 83 0.0 25 3   101.20     LegendNANA
02:00 4.3 1.1 80 0.0 26 5   101.19     LegendNANA
03:00 3.6 1.5 86 0.0 26 5   101.20     LegendNANA
04:00 2.8 1.4 90 0.0 28 7   101.22     LegendNANA
05:00 3.2 1.4 88 0.0 26 6   101.27     LegendNANA
06:00 5.2 2.5 83 0.0 27 8   101.33     LegendNANA
07:00 8.8 3.2 68 0.0 26 7   101.36     LegendNANA
08:00 13.3 4.5 55 0.0 24 3   101.40     LegendNANA
09:00 17.7 3.4 39 0.0 32 4   101.42     LegendNANA
10:00 19.5 1.6 30 0.0 4 5   101.43     LegendNANA
11:00 20.8 0.8 26 0.0 3 11   101.39     LegendNANA
12:00 21.7 0.7 25 0.0 6 13   101.36     LegendNANA
13:00 21.7 1.9 27 0.0 13 9   101.37     LegendNANA
14:00 22.1 1.7 26 0.0 7 15   101.35     LegendNANA
15:00 21.8 1.6 26 0.0 7 19   101.28     LegendNANA
16:00 21.3 0.8 26 0.0 7 20   101.26     LegendNANA
17:00 20.6 1.4 28 0.0 10 21   101.22     LegendNANA
18:00 19.1 -0.3 27 0.0 10 22   101.20     LegendNANA
19:00 17.1 -1.8 27 0.0 11 14   101.22     LegendNANA
20:00 14.3 1.9 43 0.0 9 10   101.22     LegendNANA
21:00 12.8 2.2 48 0.0 8 9   101.23     LegendNANA
22:00 11.8 2.8 54 0.0 9 9   101.13     LegendNANA
23:00 11.7 3.7 58 0.0 11 7   101.08     LegendNANA

Notes on Data Quality.

Legend

  • E = Estimated
  • M = Missing
  • NA = Not Available*
  • [empty] = Indicates an unobserved value
Date modified: